EW2099 Weather Reports


Display with metric or nautical units.
time (UTC)temp
F
wind
direction
speed
MPH
gust
MPH
rain 1hr
in
rain 24hr
in
rain mn
in
humidity
%
barometer
mb
20260503213009 57 203 0.0 3.0 0.00 0.25 0.25 74 1011.7
20260503211505 57 152 0.0 2.0 0.00 0.25 0.25 74 1011.7
20260503210005 57 162 0.0 1.0 0.00 0.25 0.25 73 1011.6
20260503204504 57 176 0.0 1.0 0.00 0.25 0.25 72 1011.5
20260503203003 58 165 0.0 1.0 0.00 0.25 0.25 72 1011.4
20260503201503 58 209 0.0 2.0 0.00 0.25 0.25 72 1011.3
20260503200002 58 127 0.0 1.0 0.00 0.25 0.25 71 1011.1
20260503194501 58 158 0.0 0.0 0.00 0.25 0.25 70 1011.0
20260503193000 59 162 0.0 0.0 0.00 0.25 0.25 69 1010.9
20260503191609 59 214 0.0 1.0 0.00 0.25 0.25 67 1011.0
20260503190100 59 233 0.0 1.0 0.00 0.25 0.25 67 1010.8
20260503184610 59 199 0.0 3.0 0.00 0.25 0.25 67 1010.8
20260503183110 60 326 0.0 2.0 0.00 0.25 0.25 66 1010.5
20260503181609 60 192 0.0 4.0 0.00 0.25 0.25 66 1010.5
20260503180058 60 196 0.0 2.0 0.00 0.25 0.25 67 1010.5
20260503174557 60 207 0.0 2.0 0.00 0.25 0.25 67 1010.5
20260503173102 59 248 0.0 1.0 0.00 0.25 0.25 67 1010.4
20260503171557 59 227 0.0 2.0 0.01 0.25 0.25 66 1010.5
20260503081532 58 231 1.0 3.0 0.01 0.05 0.05 66 1011.1
20260503071524 58 257 1.0 7.0 0.03 0.04 0.04 66 1011.1
20260503054517 59 229 2.0 7.0 0.00 0.00 0.00 62 1010.6
20260503053015 59 221 1.0 3.0 0.00 0.00 0.00 63 1010.5
20260503051515 58 250 0.0 3.0 0.00 0.00 0.00 63 1010.3
20260503050026 58 221 0.0 3.0 0.00 0.00 0.00 63 1010.4
20260503044512 58 179 0.0 2.0 0.00 0.00 0.00 63 1010.4
20260503043016 58 108 0.0 2.0 0.00 0.00 0.00 63 1010.4
20260503041511 58 141 0.0 2.0 0.00 0.00 0.00 63 1010.4
20260503040009 58 192 0.0 3.0 0.00 0.01 0.00 63 1010.5
20260503034508 57 215 0.0 2.0 0.00 0.01 0.00 63 1010.7
20260503033008 57 207 0.0 1.0 0.00 0.01 0.00 63 1010.7
20260503031506 57 213 0.0 1.0 0.00 0.01 0.00 61 1010.7
20260503030005 58 213 0.0 1.0 0.00 0.02 0.00 61 1010.8
20260503024502 58 204 0.0 1.0 0.00 0.02 0.00 60 1010.9
20260503023001 59 147 0.0 2.0 0.00 0.02 0.00 60 1010.9
20260503021605 59 208 0.0 2.0 0.00 0.02 0.00 61 1011.0
20260503020059 58 155 0.0 2.0 0.00 0.02 0.00 61 1011.1
20260503014559 59 164 0.0 0.0 0.00 0.02 0.00 60 1011.1
20260503013055 59 201 0.0 0.0 0.00 0.02 0.00 60 1011.1
20260503011559 59 121 0.0 2.0 0.00 0.02 0.00 61 1011.5
20260503010051 59 160 0.0 2.0 0.00 0.02 0.00 61 1011.8
20260503004550 59 225 0.0 2.0 0.00 0.02 0.00 62 1012.0
20260503003049 59 126 0.0 1.0 0.00 0.02 0.00 61 1012.0
20260503001558 59 169 0.0 3.0 0.00 0.02 0.00 61 1012.1
20260503000055 59 169 0.0 3.0 0.00 0.02 0.00 60 1012.4
20260502234546 60 179 0.0 1.0 0.00 0.02 0.00 59 1012.1
20260502233059 60 237 0.0 2.0 0.00 0.02 0.00 58 1012.2
20260502231558 60 107 0.0 2.0 0.00 0.02 0.00 59 1012.2
20260502230041 60 124 0.0 3.0 0.00 0.02 0.00 59 1012.3
20260502224539 60 120 0.0 2.0 0.00 0.02 0.00 59 1012.4
20260502223045 60 140 0.0 2.0 0.00 0.02 0.00 59 1012.4
20260502221539 60 128 0.0 1.0 0.00 0.02 0.00 58 1012.5
20260502220039 60 221 0.0 1.0 0.00 0.02 0.02 58 1012.8
20260502214535 60 117 0.0 2.0 0.00 0.02 0.02 58 1012.7